[TLELIST] Archives

 

[TLELIST] Current TLEs

September 23rd 2023 PDT

HST 1 20580U 90037B 23265.92729034 .00006124 00000-0 31741-3 0 9990 2 20580 28.4707 337.2606 0002256 8.5494 155.9359 15.14112033636280 ISS (ZARYA) 1 25544U 98067A 23266.34540382 .00017378 00000-0 31652-3 0 9994 2 25544 51.6416 202.3244 0005870 51.2241 92.3610 15.49559831417011 CXO 1 25867U 99040B 23268.44052180 .00001183 00000-0 00000-0 0 9998 2 25867 37.3431 184.1262 9042726 272.8331 0.7470 0.37813553 13558 ...Continue Reading

[TLELIST] Current TLEs

September 23rd 2023 PDT

HST 1 20580U 90037B 23265.92729034 .00006124 00000-0 31741-3 0 9990 2 20580 28.4707 337.2606 0002256 8.5494 155.9359 15.14112033636280 ISS (ZARYA) 1 25544U 98067A 23266.34540382 .00017378 00000-0 31652-3 0 9994 2 25544 51.6416 202.3244 0005870 51.2241 92.3610 15.49559831417011 CXO 1 25867U 99040B 23268.44052180 .00001183 00000-0 00000-0 0 9998 2 25867 37.3431 184.1262 9042726 272.8331 0.7470 0.37813553 13558 ...Continue Reading

[TLELIST] Current TLEs

September 22nd 2023 PDT

HST 1 20580U 90037B 23264.93837391 .00005673 00000-0 29338-3 0 9993 2 20580 28.4708 343.8492 0002201 357.5038 165.8861 15.14100347636135 ISS (ZARYA) 1 25544U 98067A 23265.31627168 .00017880 00000-0 32580-3 0 9997 2 25544 51.6422 207.4193 0005807 46.5561 112.3837 15.49525216416854 CXO 1 25867U 99040B 23265.79690919 .00001178 00000-0 00000-0 0 9995 2 25867 37.3288 184.4233 9043037 272.6042 0.7541 0.37812949 13559 ...Continue Reading

[TLELIST] Current TLEs

September 21st 2023 PDT

HST 1 20580U 90037B 23263.67828421 .00006414 00000-0 33311-3 0 9997 2 20580 28.4707 352.2436 0002102 342.8692 138.4344 15.14086400635942 ISS (ZARYA) 1 25544U 98067A 23264.34533763 .00018367 00000-0 33483-3 0 9990 2 25544 51.6420 212.2266 0005789 43.2903 95.9874 15.49491623416705 CXO 1 25867U 99040B 23265.79690919 .00001178 00000-0 00000-0 0 9995 2 25867 37.3288 184.4233 9043037 272.6042 0.7541 0.37812949 13559 ...Continue Reading

[TLELIST] Current TLEs

September 21st 2023 PDT

HST 1 20580U 90037B 23263.67828421 .00006414 00000-0 33311-3 0 9997 2 20580 28.4707 352.2436 0002102 342.8692 138.4344 15.14086400635942 ISS (ZARYA) 1 25544U 98067A 23264.34533763 .00018367 00000-0 33483-3 0 9990 2 25544 51.6420 212.2266 0005789 43.2903 95.9874 15.49491623416705 CXO 1 25867U 99040B 23265.79690919 .00001178 00000-0 00000-0 0 9995 2 25867 37.3288 184.4233 9043037 272.6042 0.7541 0.37812949 13559 ...Continue Reading

[TLELIST] Current TLEs

September 20th 2023 PDT

HST 1 20580U 90037B 23262.68904841 .00006608 00000-0 34362-3 0 9990 2 20580 28.4709 358.8335 0002041 330.5926 147.9624 15.14073296636058 ISS (ZARYA) 1 25544U 98067A 23263.37806641 .00016418 00000-0 30068-3 0 9991 2 25544 51.6417 217.0147 0005763 40.8381 99.3324 15.49450674416559 CXO 1 25867U 99040B 23265.79578558 .00001178 00000-0 00000+0 0 9998 2 25867 37.3312 184.4414 9043004 272.5873 0.6020 0.37814831 24705 ...Continue Reading

[TLELIST] Current TLEs

September 19th 2023 PDT

HST 1 20580U 90037B 23261.69988360 .00005897 00000-0 30574-3 0 9998 2 20580 28.4707 5.4228 0001980 318.9344 157.3066 15.14059501635649 ISS (ZARYA) 1 25544U 98067A 23262.35054104 .00014745 00000-0 27129-3 0 9992 2 25544 51.6415 222.0994 0005856 35.8467 129.0291 15.49409802416398 CXO 1 25867U 99040B 23263.15726486 .00001142 00000-0 00000-0 0 9993 2 25867 37.3289 184.6884 9044021 272.3966 1.3024 0.37815356 13547 ...Continue Reading

[TLELIST] Current TLEs

September 18th 2023 PDT

HST 1 20580U 90037B 23260.57104154 .00006402 00000-0 33284-3 0 9999 2 20580 28.4704 12.9421 0001941 304.5819 126.5622 15.14049203635474 ISS (ZARYA) 1 25544U 98067A 23261.37754304 .00014387 00000-0 26521-3 0 9999 2 25544 51.6416 226.9153 0005862 31.7166 102.3637 15.49379141416241 CXO 1 25867U 99040B 23263.15726486 .00001142 00000-0 00000+0 0 9992 2 25867 37.3289 184.6884 9044021 272.3966 1.3024 0.37815356 24695 ...Continue Reading

[TLELIST] Current TLEs

September 17th 2023 PDT

HST 1 20580U 90037B 23259.51230616 .00004650 00000-0 23912-3 0 9994 2 20580 28.4702 19.9953 0001931 293.1958 115.7737 15.14034648635312 ISS (ZARYA) 1 25544U 98067A 23260.34808469 .00013740 00000-0 25395-3 0 9997 2 25544 51.6410 232.0124 0005832 28.1553 120.1076 15.49346510416089 CXO 1 25867U 99040B 23260.50640322 .00001120 00000-0 00000-0 0 9999 2 25867 37.3315 184.9655 9046765 272.1795 0.3477 0.37816657 13536 ...Continue Reading

[TLELIST] Current TLEs

September 16th 2023 PDT

HST 1 20580U 90037B 23259.07203130 .00004867 00000-0 25078-3 0 9991 2 20580 28.4702 22.9282 0001906 287.3010 237.1661 15.14030966635513 ISS (ZARYA) 1 25544U 98067A 23259.38139350 .00014716 00000-0 27162-3 0 9993 2 25544 51.6408 236.7974 0005853 23.9093 128.9792 15.49320949415937 ...Continue Reading
  • This mailing list is a public mailing list - anyone may join or leave, at any time.
  • This mailing list is announce-only.

International Space Station (ISS) / Hubble Space Telescope (HST) / Chandra X-Ray Observatory Orbital Data via EMAIL

Privacy Policy:

Private list